User: anonymous   Login
Location: Mentone
(34.5413°N, 85.5351°W)
Time: 14:33:49
(UTC-05:00)
Language:

Cosmos 2150 Rocket - Orbit

View from above orbital plane
View from above orbital plane
View from above satellite
View from above satellite

Ground track
Ground track

The orbit data is extracted from the following two-line orbital elements,

1 21419U 91041B   15087.87498005  .00000291  00000-0  11313-3 0  9998
2 21419 074.0420 343.2930 0040210 109.0433 321.5172 14.33690791244191
Epoch (UTC): 28 March 2015 20:59:58
Eccentricity: 0.0040210
inclination: 74.0420°
perigee height: 750 km
apogee height: 808 km
right ascension of ascending node: 343.2930°
argument of perigee: 109.0433°
revolutions per day: 14.33690791
mean anomaly at epoch: 321.5172°
orbit number at epoch: 24419

The dashed part of the orbit path shows where the satellite is in the earth's shadow,  

DLR